This is the latest recevied weather packets stored in our database for station/object W5ALL-WX. If no packets are shown the sender has not sent any weather packets the latest 10 day(s).
| Time | Temp. | Humidity | Pressure | Rain* | Wind** | Luminosity | Snow |
|---|---|---|---|---|---|---|---|
| 1777179308 | 18.33° C | 17% | 1010.8 hPa | 0 mm | - | - | - |
| 1777179008 | 18.33° C | 18% | 1010.8 hPa | 0 mm | - | - | - |
| 1777178708 | 17.78° C | 18% | 1010.7 hPa | 0 mm | - | - | - |
| 1777178408 | 18.33° C | 18% | 1010.7 hPa | 0 mm | - | - | - |
| 1777178108 | 17.78° C | 18% | 1010.7 hPa | 0 mm | - | - | - |
| 1777177808 | 17.78° C | 18% | 1010.6 hPa | 0 mm | - | - | - |
| 1777177508 | 17.78° C | 18% | 1010.6 hPa | 0 mm | - | - | - |
| 1777177208 | 18.33° C | 18% | 1010.6 hPa | 0 mm | - | - | - |
| 1777176908 | 18.33° C | 17% | 1010.6 hPa | 0 mm | - | - | - |
| 1777176608 | 18.89° C | 17% | 1010.6 hPa | 0 mm | - | - | - |
| 1777176308 | 19.44° C | 16% | 1010.4 hPa | 0 mm | - | - | - |
| 1777176008 | 20° C | 15% | 1010.3 hPa | 0 mm | - | - | - |
| 1777175708 | 20.56° C | 15% | 1010.3 hPa | 0 mm | - | - | - |
| 1777175408 | 20.56° C | 15% | 1010.4 hPa | 0 mm | - | - | - |
| 1777175108 | 20.56° C | 15% | 1010.3 hPa | 0 mm | - | - | - |
| 1777174808 | 20.56° C | 15% | 1010.3 hPa | 0 mm | - | - | - |
| 1777174508 | 20.56° C | 15% | 1010.3 hPa | 0 mm | - | - | - |
| 1777174208 | 20.56° C | 15% | 1010.3 hPa | 0 mm | - | - | - |
| 1777173908 | 20° C | 16% | 1010.3 hPa | 0 mm | - | - | - |
| 1777173608 | 20° C | 16% | 1010.1 hPa | 0 mm | - | - | - |
| 1777173308 | 20.56° C | 16% | 1010.1 hPa | 0 mm | - | - | - |
| 1777173008 | 20.56° C | 16% | 1010.1 hPa | 0 mm | - | - | - |
| 1777172708 | 21.11° C | 15% | 1009.9 hPa | 0 mm | - | - | - |
| 1777172408 | 21.11° C | 14% | 1010 hPa | 0 mm | - | - | - |
| 1777172108 | 21.67° C | 14% | 1009.9 hPa | 0 mm | - | - | - |
* Rain latest hour (hover to see other rain measurements)
** Current wind speed in m/s (hover to see current wind gust speed)